Starlink 32514

operational
NORAD ID: 61965 Int'l Des: 2024-210 Owner: SPXS Country: US Constellation: starlink
LEOCIRCULAR

About Starlink 32514

Description loading...

Live Position

Loading 3D Globe...

Upcoming Passes

Altitude History

Altitude vs Time

uPlot chart will show altitude changes over time

Two-Line Element Set

1 61965U 24210G 26034.63848451 .00031916 00000-0 11652-2 0 9997
2 61965 43.0057 5.0907 0001784 257.3705 102.6948 15.27554549 69785
Epoch: Feb 3, 2026 • Age: 12 hours

Current Status

Altitude 488.0 km
Velocity 7.62 km/s
Sub-Earth Point -24.16°S, 27.76°E
Launch Date Nov 14, 2024
Age 1.2 years
Type internet

Technical Details

Classification Payload
Mass 730.00 kg
Dry Mass 700.00 kg
Total Mass 730.00 kg
Length 0.30 m
Diameter 4.10 m
Span 29.00 m
Shape Box + pan
Manufacturer SPXS
Bus Type Starlink V2M
Phase Status In Orbit
Owner/State SPXS/US

Large Constellations

Loading constellations...